Regional Weather Roundup
Issued by NWS Jackson, KY

Home | Current Version | Previous Version | Text Only | Print | Product List | Glossary On
Versions: 1 2 3 4 5 6 7 8 9 10 11 12 13 14 15 16 17 18 19 20 21 22 23 24 25 26 27 28 29 30 31 32 33 34 35 36 37 38 39 40 41 42 43 44 45 46 47 48 49 50
000
ASUS43 KJKL 172319
RWRJKL

EAST KENTUCKY HOURLY WEATHER ROUNDUP
NATIONAL WEATHER SERVICE JACKSON KY
700 PM EDT WED SEP 17 2014

NOTE: "FAIR" INDICATES FEW OR NO CLOUDS BELOW 12,000 FEET WITH
NO SIGNIFICANT WEATHER AND/OR OBSTRUCTIONS TO VISIBILITY.

* THESE REPORTS ARE NOT UNDER NWS QUALITY CONTROL AND MAY NOT
  REPORT WEATHER SUCH AS PRECIPITATION AND FOG.

KYZ079-080-083-085-087-088-110-112-115-119-120-180000
...EASTERN KENTUCKY...

CITY           SKY/WX    TMP DP  RH WIND       PRES   REMARKS
JACKSON        CLEAR     66  52  60 CALM      29.98F
LONDON         CLEAR     70  54  56 NE5       29.98F
MONTICELLO*    CLEAR     71  55  56 CALM      30.00R
MIDDLESBORO*   CLEAR     70  54  57 CALM      29.97S
HARLAN APT*    CLEAR     68  54  60 MISG      29.97F
BLACK MTN*       N/A     55  54  94 NE3         N/A
PIKEVILLE APT* CLEAR     63  54  72 N3        29.99S
BIG SANDY*     CLEAR     65  55  70 CALM      29.99S
MOREHEAD APT*  CLOUDY    66  54  63 CALM      30.00S
$$

KYZ035-036-041-042-044-050-067-078-099-180000
...CENTRAL KENTUCKY...

CITY           SKY/WX    TMP DP  RH WIND       PRES   REMARKS
MT STERLING*   PTCLDY    66  54  63 CALM      29.99F
FLEMING/MASON* CLEAR     66  50  55 CALM      29.99F
DANVILLE*      PTCLDY    68  52  56 CALM      29.99S
RICHMOND*      CLEAR     66  52  59 CALM      29.97S
LEXINGTON      CLEAR     67  53  61 N6        29.98S
FRANKFORT      PTCLDY    67  52  58 NW3       29.97F
$$

KYZ091>093-OHZ055-061-077-WVZ005-015-034-035-042-180000
...SOUTHERN OHIO/WEST VIRGINIA...

CITY           SKY/WX    TMP DP  RH WIND       PRES   REMARKS
COVINGTON      PTCLDY    65  50  58 W3        29.98F
COLUMBUS       PTCLDY    68  46  45 NW5       29.97F
DAYTON         PTCLDY    66  48  52 CALM      30.00F
WILMINGTON     PTCLDY    63  47  55 NW8       30.00S
HUNTINGTON     PTCLDY    67  55  65 SE3       29.96F
CHARLESTON     MOCLDY    67  57  70 W5        29.97S
PINEVILLE*     MOCLDY    67  62  86 MISG      30.04R
BECKLEY        MOCLDY    65  55  70 N3        30.00R
BLUEFIELD      MOCLDY    64  56  75 CALM      30.01S
$$

VAZ002-007-008-TNZ017-027-036-066-071-180000
...SOUTHWEST VIRGINIA/EAST TENNESSEE...

CITY           SKY/WX    TMP DP  RH WIND       PRES   REMARKS
WISE*          PTCLDY    64  54  68 N5        30.03R
JONESVILLE*    CLEAR     72  57  60 CALM      29.98S
ABINGDON*      CLEAR     71  56  58 NW7       29.98R
BRISTOL        PTCLDY    72  52  49 NW7       29.96R
KNOXVILLE      MOCLDY    73  53  49 W7        29.94S
OAK RIDGE      PTCLDY    74  54  49 SW5       29.97R
CROSSVILLE     MOCLDY    67  54  63 W6        30.01S
NASHVILLE      MOCLDY    70  57  63 SE6       29.95F
$$

...KEY TO REMARKS...
VSB - VISIBILITY IN MILES
WCI - WIND CHILL INDEX
HX  - HEAT INDEX

$$



USA.gov is the U.S. government's official web portal to all federal, state and local government web resources and services.